Regional Weather Roundup
Issued by NWS Wilmington, NC

Home | Current Version | Previous Version | Text Only | Print | Product List | Glossary On
Versions: 1 2 3 4 5 6 7 8 9 10 11 12 13 14 15 16 17 18 19 20 21 22 23 24 25 26 27 28 29 30 31 32 33 34 35 36 37 38 39 40 41 42 43 44 45 46 47 48 49 50
713
ASUS42 KILM 040413
RWRILM
RWRILM
REGIONAL HOURLY WEATHER ROUNDUP
NATIONAL WEATHER SERVICE WILMINGTON NC
1200 AM EDT WED MAY 04 2016

NOTE: "FAIR" INDICATES FEW OR NO CLOUDS BELOW 12,000 FEET WITH NO
SIGNIFICANT WEATHER AND/OR OBSTRUCTIONS TO VISIBILITY.

...............WFO WILMINGTON COUNTY WARNING AREA...............

......COASTAL NC AND SC COUNTIES......

CITY           SKY/WX    TMP DP  RH WIND       PRES   REMARKS
WILMINGTON     MOCLDY    71  70  96 S12       29.75F
N MYRTLE BEACH CLOUDY    73  70  90 SW13      29.76S
MYRTLE BEACH   CLOUDY    75  64  69 SW14G22   29.80R

......INLAND NC AND SC COUNTIES.......

CITY           SKY/WX    TMP DP  RH WIND       PRES   REMARKS
LUMBERTON      PTCLDY    69  66  90 CALM      29.74F
ELIZABETHTOWN  CLOUDY    69  69 100 S6        29.75S FOG
WHITEVILLE     NOT AVBL
FLORENCE       MOCLDY    73  66  78 SW9       29.76F
DARLINGTON     CLEAR     71  65  81 SW7       29.76S
KINGSTREE      FAIR      72  63  73 S9G16     29.78F
HARTSVILLE     FAIR      68  63  83 SW3       29.76S
BENNETTSVILLE  FAIR      72  68  88 SW6       29.75S
CONWAY         MOCLDY    72  68  88 S8        29.78R
GEORGETOWN     FAIR      64  61  88 SW9       29.81F
MARION         FAIR      70  64  83 S6        29.76S

....................REST OF NORTH CAROLINA......................

.........EASTERN NC.........

CITY           SKY/WX    TMP DP  RH WIND       PRES   REMARKS
CAPE HATTERAS  CLOUDY    70  69  97 W6        29.75F
JACKSONVILLE   MOCLDY    68  66  94 SW5       29.74S
MOREHEAD CITY  CLOUDY    71  69  93 SW3       29.74F
KENANSVILLE    CLOUDY    67  64  91 CALM      29.75S
NEW BERN       MOCLDY    68  65  90 CALM      29.75S
ELIZABETH CITY LGT RAIN  64  59  83 N3        29.74F

.........CENTRAL NC.........

CITY           SKY/WX    TMP DP  RH WIND       PRES   REMARKS
RALEIGH DURHAM LGT RAIN  64  63  96 SW8       29.76S FOG
ROCKY MOUNT    TSTM      61  60  97 SE8       29.73F FOG
ROANOKE RAPIDS NOT AVBL
FAYETTEVILLE   MOCLDY    66  63  90 VRB6      29.74R
HOFFMAN        PTCLDY    66  64  93 NW2       29.74F

.........WESTERN NC.........

CITY           SKY/WX    TMP DP  RH WIND       PRES   REMARKS
CHARLOTTE      MOCLDY    63  58  83 N3        29.77F
GREENSBORO     MOCLDY    64  58  80 N5        29.76S
HICKORY        NOT AVBL
BOONE          NOT AVBL
ASHEVILLE      NOT AVBL

.....................REST OF SOUTH CAROLINA.....................

.........EASTERN SC.........

CITY           SKY/WX    TMP DP  RH WIND       PRES   REMARKS
CHARLESTON     CLOUDY    67  63  87 W5        29.79F
BEAUFORT MCAS  CLOUDY    68  67  96 CALM      29.80F
HILTON HEAD    PTCLDY    70  68  94 CALM      29.82F

.........CENTRAL SC.........

CITY           SKY/WX    TMP DP  RH WIND       PRES   REMARKS
COLUMBIA       PTCLDY    71  66  84 W6        29.76F
ORANGEBURG     PTCLDY    69  66  90 S7        29.79F
SUMTER SHAW    MOCLDY    70  65  84 SW7       29.75S

.........WESTERN SC.........

CITY           SKY/WX    TMP DP  RH WIND       PRES   REMARKS
GREENVILLE     NOT AVBL
ROCK HILL      CLEAR     64  58  80 CALM      29.77F
ANDERSON       CLEAR     64  53  67 W7        29.80S
CLEMSON        NOT AVBL
GREENWOOD      CLEAR     66  53  63 W5        29.79F


...................COASTAL AND OFFSHORE REPORTS..................

................LOCAL PIERS AND NC RESERVE................


STATION/POSITION TIME  SKY/WX   TEMP    WIND        PRES    VSBY
                                AIR SEA DIR/SP/G
                 (UTC)          (F)     (DEG/KT/KT) (MB)    (MI)
JOHNY MRCER PIER 0300            70 69  190/ 12/ 14 1006.8F
NC RESRV MASNBRO NOT AVBL
OCEAN CREST PIER NOT AVBL
SPRINGMAID  PIER 0300            72 71  200/ 13/ 14 1007.8R


................COASTAL AND OFFSHORE BUOYS................


STATION/POSITION TIME  SKY/WX   TEMP    WIND        PRES    VSBY
                                AIR SEA DIR/SP/G
                 (UTC)          (F)     (DEG/KT/KT) (MB)    (MI)
DIMNDSHOAL 41025 0350            72 72  250/ 12/ 14 1007.6R
WVE H/P(F/S)=  4/ 5 SWL H/P/D(F/S/D)=  2/180/ 6

CAPE LOOKOUT     0400            70     170/  6/  7 1006.9F
ONSLOW BAY 41036 NOT AVBL
ONSLOW BAY 41064 NOT AVBL
ONSLOW BAY 41159 0325               71                N/A
WVE H/P(F/S)=  5/ 7

5SE WRITBC 41038 0308            71 70  200/ 12/ 16 1009.5F
MASNBO INL 41110 0306               70                N/A
WVE H/P(F/S)=  3/ 7

WILM HARBR 41108 0326               70                N/A
WVE H/P(F/S)=  4/ 7

27SE WRITB 41037 0308            73 72  220/ 12/ 17   N/A
FRYING PAN 41013 0300            74 73  210/ 12/ 16 1008.5R
SUNST NRSH 41024 0308            72 71  210/ 12/ 16 1007.6R
CAPRS NRSH 41029 0308            68 71  240/ 19/ 31 1010.5R
EDISTO     41004 0350            73 74  330/ 16/ 21 1008.9F
WVE H/P(F/S)=  5/ 4 SWL H/P/D(F/S/D)=  2/ 8



..........OFFSHORE BUOYS BEYOND 100 NM OFFSHORE...........
.....IN A TRIANGLE---HAT TO BERMUDA TO BAHAMAS TO HAT.....


STATION/POSITION TIME  SKY/WX   TEMP    WIND        PRES    VSBY
                                AIR SEA DIR/SP/G
                 (UTC)          (F)     (DEG/KT/KT) (MB)    (MI)
150E HAT   41001 NOT AVBL
W BERMUDA  41048 0350            71 70  170/ 16/ 19 1015.2F
WVE H/P(F/S)=  3/ 8 SWL H/P/D(F/S/D)=  2/100/ 8

ATLANTIC S 41049 NOT AVBL
E BAHAMAS  41046 0350            79 80  120/ 16/ 19 1017.9F
WVE H/P(F/S)=  5/ 9 SWL H/P/D(F/S/D)=  3/ 20/ 9

NE BAHAMAS 41047 0350            76 78  170/ 14/ 17 1016.5F
WVE H/P(F/S)=  4/ 9 SWL H/P/D(F/S/D)=  3/ 80/ 9

120E CANVRL41010 0320            78 79  180/ 12/ 14 1012.6F

END




USA.gov is the U.S. government's official web portal to all federal, state and local government web resources and services.